Tracking 19279 objects as of 14-Nov-2018
HD Live streaming from Space Station
objects crossing your sky now

FENGYUN 1C DEB

Track FENGYUN 1C DEB now!
10-day predictions


NORAD ID: 35169
Int'l Code: 1999-025DMZ
Perigee: 617.2 km
Apogee: 880.4 km
Inclination: 99.2 °
Period: 99.6 minutes
Semi major axis: 7119 km
RCS: 0.0083 m2 (small)
Launch date: May 10, 1999
Source: People's Republic of China (PRC)
Launch site: Taiyaun Space Center, China (TSC)

Note: This is SATELLITE DEBRIS
aabbcc
Your satellite tracking list
Your tracking list is empty




NASA's NSSDC Master Catalog

Two Line Element Set (TLE):
1 35169U 99025DMZ 18317.20809596  .00000185  00000-0  57770-4 0  9992
2 35169  99.1857 306.6886 0184865 256.8737 101.1764 14.45113642550340
Source of the keplerian elements: AFSPC